| time (UTC) | temp F | wind direction | speed MPH | gust MPH | rain 1hr in | rain 24hr in | rain mn in | humidity % | barometer mb |
| 20260504060209 | 50 | 245 | 2.0 | 7.0 | 0.00 | 0.00 | 0.00 | 71 | 1009.0 |
| 20260504050709 | 52 | 245 | 11.0 | 15.0 | 0.00 | 0.00 | 0.00 | 68 | 1010.0 |
| 20260504050209 | 52 | 245 | 3.0 | 12.0 | 0.00 | 0.00 | 0.00 | 66 | 1010.0 |
| 20260504045709 | 52 | 245 | 6.0 | 6.0 | 0.00 | 0.00 | 0.00 | 65 | 1010.0 |
| 20260504045209 | 52 | 245 | 5.0 | 10.0 | 0.00 | 0.00 | 0.00 | 64 | 1010.0 |
| 20260504044710 | 52 | 245 | 9.0 | 12.0 | 0.00 | 0.00 | 0.00 | 62 | 1010.0 |
| 20260504044210 | 52 | 245 | 7.0 | 12.0 | 0.00 | 0.00 | 0.00 | 60 | 1010.0 |
| 20260504043709 | 52 | 245 | 5.0 | 9.0 | 0.00 | 0.00 | 0.00 | 61 | 1010.0 |
| 20260504043209 | 51 | 245 | 6.0 | 9.0 | 0.00 | 0.00 | 0.00 | 61 | 1010.0 |
| 20260504042709 | 51 | 245 | 6.0 | 9.0 | 0.00 | 0.00 | 0.00 | 61 | 1010.0 |
| 20260504042210 | 51 | 245 | 6.0 | 9.0 | 0.00 | 0.00 | 0.00 | 62 | 1010.0 |
| 20260504041709 | 50 | 245 | 5.0 | 8.0 | 0.00 | 0.00 | 0.00 | 62 | 1010.0 |
| 20260504041209 | 50 | 245 | 5.0 | 5.0 | 0.00 | 0.00 | 0.00 | 64 | 1010.0 |
| 20260504040709 | 50 | 245 | 4.0 | 4.0 | 0.00 | 0.00 | 0.00 | 63 | 1010.0 |
| 20260504040210 | 50 | 245 | 6.0 | 8.0 | 0.00 | 0.00 | 0.00 | 63 | 1010.0 |
| 20260504035710 | 50 | 245 | 4.0 | 6.0 | 0.00 | 0.00 | 0.00 | 62 | 1010.0 |
| 20260504035209 | 51 | 245 | 3.0 | 8.0 | 0.00 | 0.00 | 0.00 | 61 | 1010.0 |
| 20260504034709 | 51 | 245 | 3.0 | 7.0 | 0.00 | 0.00 | 0.00 | 60 | 1010.0 |
| 20260504034209 | 51 | 245 | 3.0 | 6.0 | 0.00 | 0.00 | 0.00 | 59 | 1010.0 |
| 20260504033709 | 51 | 245 | 7.0 | 7.0 | 0.00 | 0.00 | 0.00 | 58 | 1010.0 |
| 20260504033209 | 52 | 245 | 3.0 | 10.0 | 0.00 | 0.00 | 0.00 | 58 | 1010.0 |
| 20260504032710 | 52 | 245 | 7.0 | 9.0 | 0.00 | 0.00 | 0.00 | 57 | 1010.0 |
| 20260504032209 | 52 | 245 | 1.0 | 8.0 | 0.00 | 0.00 | 0.00 | 56 | 1010.0 |
| 20260504031709 | 53 | 245 | 3.0 | 11.0 | 0.00 | 0.00 | 0.00 | 55 | 1010.0 |
| 20260504031209 | 53 | 245 | 4.0 | 11.0 | 0.00 | 0.00 | 0.00 | 54 | 1010.0 |
| 20260504030709 | 54 | 245 | 4.0 | 9.0 | 0.00 | 0.00 | 0.00 | 53 | 1010.0 |
| 20260504030210 | 54 | 245 | 3.0 | 6.0 | 0.00 | 0.00 | 0.00 | 51 | 1010.0 |
| 20260504025709 | 55 | 245 | 5.0 | 6.0 | 0.00 | 0.00 | 0.00 | 50 | 1010.0 |
| 20260504025215 | 55 | 245 | 4.0 | 7.0 | 0.00 | 0.00 | 0.00 | 48 | 1010.0 |
| 20260504024709 | 55 | 245 | 7.0 | 10.0 | 0.00 | 0.00 | 0.00 | 48 | 1010.0 |
| 20260504024210 | 55 | 245 | 9.0 | 9.0 | 0.00 | 0.00 | 0.00 | 48 | 1010.0 |
| 20260504023709 | 55 | 245 | 8.0 | 9.0 | 0.00 | 0.00 | 0.00 | 48 | 1010.0 |
| 20260504023209 | 55 | 245 | 8.0 | 11.0 | 0.00 | 0.00 | 0.00 | 48 | 1010.0 |
| 20260504022710 | 55 | 245 | 3.0 | 9.0 | 0.00 | 0.00 | 0.00 | 49 | 1010.0 |
| 20260504022209 | 55 | 245 | 2.0 | 9.0 | 0.00 | 0.00 | 0.00 | 49 | 1010.0 |
| 20260504021709 | 54 | 245 | 2.0 | 9.0 | 0.00 | 0.00 | 0.00 | 50 | 1010.0 |
| 20260504021209 | 54 | 245 | 3.0 | 8.0 | 0.00 | 0.00 | 0.00 | 51 | 1010.0 |
| 20260504020710 | 54 | 245 | 4.0 | 8.0 | 0.00 | 0.00 | 0.00 | 52 | 1010.0 |
| 20260504020209 | 53 | 245 | 3.0 | 10.0 | 0.00 | 0.00 | 0.00 | 53 | 1010.0 |
| 20260504015710 | 53 | 245 | 7.0 | 9.0 | 0.00 | 0.00 | 0.00 | 55 | 1010.0 |
| 20260504015209 | 53 | 245 | 2.0 | 8.0 | 0.00 | 0.00 | 0.00 | 54 | 1010.0 |
| 20260504014710 | 53 | 245 | 1.0 | 8.0 | 0.00 | 0.00 | 0.00 | 55 | 1010.0 |
| 20260504014209 | 52 | 245 | 4.0 | 7.0 | 0.00 | 0.00 | 0.00 | 57 | 1010.0 |
| 20260504013710 | 53 | 245 | 5.0 | 7.0 | 0.00 | 0.00 | 0.00 | 57 | 1010.0 |
| 20260504013209 | 53 | 245 | 6.0 | 7.0 | 0.00 | 0.00 | 0.00 | 55 | 1010.0 |
| 20260504012709 | 53 | 245 | 4.0 | 9.0 | 0.00 | 0.00 | 0.00 | 56 | 1010.0 |
| 20260504012210 | 54 | 245 | 2.0 | 7.0 | 0.00 | 0.00 | 0.00 | 52 | 1010.0 |
| 20260504011709 | 54 | 245 | 5.0 | 10.0 | 0.00 | 0.00 | 0.00 | 51 | 1010.0 |
| 20260504011209 | 54 | 245 | 8.0 | 8.0 | 0.00 | 0.00 | 0.00 | 51 | 1010.0 |
| 20260504010710 | 54 | 245 | 3.0 | 4.0 | 0.00 | 0.00 | 0.00 | 51 | 1010.0 |
| 20260504010210 | 54 | 245 | 7.0 | 9.0 | 0.00 | 0.00 | 0.00 | 51 | 1010.0 |
| 20260504005709 | 54 | 245 | 10.0 | 10.0 | 0.00 | 0.00 | 0.00 | 51 | 1010.0 |
| 20260504005209 | 54 | 245 | 4.0 | 8.0 | 0.00 | 0.00 | 0.00 | 51 | 1010.0 |
| 20260504004711 | 54 | 245 | 7.0 | 7.0 | 0.00 | 0.00 | 0.00 | 51 | 1010.0 |
| 20260504004210 | 54 | 245 | 4.0 | 8.0 | 0.00 | 0.00 | 0.00 | 51 | 1010.0 |
| 20260504003709 | 54 | 245 | 8.0 | 8.0 | 0.00 | 0.00 | 0.00 | 52 | 1010.0 |
| 20260504003209 | 54 | 245 | 4.0 | 11.0 | 0.00 | 0.00 | 0.00 | 52 | 1010.0 |
| 20260504002709 | 53 | 245 | 4.0 | 7.0 | 0.00 | 0.00 | 0.00 | 52 | 1010.0 |
| 20260504002212 | 53 | 245 | 10.0 | 10.0 | 0.00 | 0.00 | 0.00 | 53 | 1010.0 |
| 20260504001709 | 53 | 245 | 6.0 | 9.0 | 0.00 | 0.00 | 0.00 | 54 | 1010.0 |
| 20260504001211 | 53 | 245 | 7.0 | 8.0 | 0.00 | 0.00 | 0.00 | 54 | 1010.0 |
| 20260504000710 | 53 | 245 | 5.0 | 6.0 | 0.00 | 0.00 | 0.00 | 55 | 1010.0 |
| 20260504000211 | 53 | 245 | 5.0 | 5.0 | 0.00 | 0.00 | 0.00 | 57 | 1010.0 |
| 20260503235709 | 52 | 245 | 4.0 | 5.0 | 0.00 | 0.00 | 0.00 | 57 | 1010.0 |
| 20260503235209 | 52 | 245 | 3.0 | 6.0 | 0.00 | 0.00 | 0.00 | 57 | 1010.0 |
| 20260503234709 | 52 | 245 | 4.0 | 5.0 | 0.00 | 0.00 | 0.00 | 58 | 1010.0 |
| 20260503234209 | 53 | 245 | 3.0 | 6.0 | 0.00 | 0.00 | 0.00 | 58 | 1010.0 |
| 20260503233709 | 53 | 245 | 3.0 | 8.0 | 0.00 | 0.00 | 0.00 | 57 | 1010.0 |
| 20260503233210 | 53 | 245 | 2.0 | 5.0 | 0.00 | 0.00 | 0.00 | 57 | 1010.0 |
| 20260503232710 | 53 | 245 | 5.0 | 6.0 | 0.00 | 0.00 | 0.00 | 57 | 1010.0 |
| 20260503232209 | 53 | 245 | 4.0 | 5.0 | 0.00 | 0.00 | 0.00 | 57 | 1010.0 |
| 20260503231711 | 53 | 245 | 3.0 | 7.0 | 0.00 | 0.00 | 0.00 | 57 | 1010.0 |
| 20260503231209 | 53 | 245 | 3.0 | 8.0 | 0.00 | 0.00 | 0.00 | 59 | 1010.0 |
| 20260503230709 | 53 | 245 | 3.0 | 7.0 | 0.00 | 0.00 | 0.00 | 60 | 1010.0 |
| 20260503230209 | 53 | 245 | 2.0 | 11.0 | 0.00 | 0.00 | 0.00 | 60 | 1010.0 |
| 20260503225709 | 53 | 245 | 5.0 | 8.0 | 0.00 | 0.00 | 0.00 | 60 | 1010.0 |
| 20260503225209 | 54 | 245 | 6.0 | 6.0 | 0.00 | 0.00 | 0.00 | 59 | 1010.0 |
| 20260503224710 | 54 | 245 | 3.0 | 7.0 | 0.00 | 0.00 | 0.00 | 57 | 1010.0 |
| 20260503224210 | 53 | 245 | 11.0 | 11.0 | 0.00 | 0.00 | 0.00 | 58 | 1010.0 |
| 20260503223710 | 53 | 245 | 5.0 | 6.0 | 0.00 | 0.00 | 0.00 | 58 | 1010.0 |
| 20260503223209 | 53 | 245 | 6.0 | 10.0 | 0.00 | 0.00 | 0.00 | 57 | 1010.0 |
| 20260503222709 | 53 | 245 | 3.0 | 8.0 | 0.00 | 0.00 | 0.00 | 58 | 1010.0 |
| 20260503222209 | 53 | 245 | 2.0 | 10.0 | 0.00 | 0.00 | 0.00 | 58 | 1010.0 |
| 20260503221710 | 53 | 245 | 4.0 | 12.0 | 0.00 | 0.00 | 0.00 | 59 | 1010.0 |
| 20260503221210 | 53 | 245 | 4.0 | 8.0 | 0.00 | 0.00 | 0.00 | 60 | 1011.0 |
| 20260503220709 | 53 | 245 | 6.0 | 9.0 | 0.00 | 0.00 | 0.00 | 59 | 1010.0 |
| 20260503220210 | 52 | 245 | 2.0 | 10.0 | 0.00 | 0.00 | 0.00 | 59 | 1010.0 |
| 20260503215709 | 52 | 245 | 5.0 | 10.0 | 0.00 | 0.00 | 0.00 | 59 | 1010.0 |
| 20260503215210 | 52 | 245 | 6.0 | 6.0 | 0.00 | 0.00 | 0.00 | 59 | 1010.0 |
| 20260503214709 | 52 | 245 | 6.0 | 6.0 | 0.00 | 0.00 | 0.00 | 59 | 1010.0 |
| 20260503214210 | 52 | 245 | 7.0 | 8.0 | 0.00 | 0.00 | 0.00 | 59 | 1010.0 |
| 20260503213709 | 53 | 245 | 6.0 | 8.0 | 0.00 | 0.00 | 0.00 | 58 | 1010.0 |
| 20260503213209 | 53 | 245 | 9.0 | 9.0 | 0.00 | 0.00 | 0.00 | 58 | 1010.0 |
| 20260503212709 | 53 | 245 | 5.0 | 8.0 | 0.00 | 0.00 | 0.00 | 58 | 1010.0 |
| 20260503212210 | 53 | 245 | 5.0 | 10.0 | 0.00 | 0.00 | 0.00 | 58 | 1010.0 |
| 20260503211711 | 53 | 245 | 7.0 | 8.0 | 0.00 | 0.00 | 0.00 | 57 | 1010.0 |
| 20260503211212 | 53 | 245 | 5.0 | 9.0 | 0.00 | 0.00 | 0.00 | 57 | 1010.0 |
| 20260503210709 | 53 | 245 | 2.0 | 10.0 | 0.00 | 0.00 | 0.00 | 57 | 1010.0 |
| 20260503210209 | 53 | 245 | 5.0 | 9.0 | 0.00 | 0.00 | 0.00 | 58 | 1010.0 |
| 20260503205709 | 52 | 245 | 9.0 | 12.0 | 0.00 | 0.00 | 0.00 | 58 | 1010.0 |
| 20260503205209 | 52 | 245 | 7.0 | 11.0 | 0.00 | 0.00 | 0.00 | 58 | 1010.0 |
| 20260503204709 | 52 | 245 | 4.0 | 12.0 | 0.00 | 0.00 | 0.00 | 58 | 1010.0 |
| 20260503204209 | 52 | 245 | 4.0 | 8.0 | 0.00 | 0.00 | 0.00 | 58 | 1010.0 |
| 20260503203710 | 52 | 245 | 4.0 | 13.0 | 0.00 | 0.00 | 0.00 | 58 | 1010.0 |
| 20260503203209 | 52 | 245 | 5.0 | 9.0 | 0.00 | 0.00 | 0.00 | 57 | 1010.0 |
| 20260503202709 | 53 | 245 | 6.0 | 7.0 | 0.00 | 0.00 | 0.00 | 58 | 1010.0 |
| 20260503202209 | 52 | 245 | 9.0 | 9.0 | 0.00 | 0.00 | 0.00 | 57 | 1011.0 |
| 20260503201709 | 53 | 245 | 11.0 | 11.0 | 0.00 | 0.00 | 0.00 | 56 | 1010.0 |
| 20260503201210 | 53 | 245 | 7.0 | 9.0 | 0.00 | 0.00 | 0.00 | 56 | 1011.0 |
| 20260503200709 | 53 | 245 | 7.0 | 7.0 | 0.00 | 0.00 | 0.00 | 56 | 1011.0 |
| 20260503200209 | 53 | 245 | 8.0 | 8.0 | 0.00 | 0.00 | 0.00 | 55 | 1011.0 |
| 20260503195709 | 54 | 245 | 6.0 | 9.0 | 0.00 | 0.00 | 0.00 | 54 | 1011.0 |
| 20260503195209 | 55 | 245 | 14.0 | 14.0 | 0.00 | 0.00 | 0.00 | 53 | 1011.0 |
| 20260503194709 | 55 | 245 | 5.0 | 11.0 | 0.00 | 0.00 | 0.00 | 53 | 1011.0 |
| 20260503194209 | 55 | 245 | 4.0 | 7.0 | 0.00 | 0.00 | 0.00 | 53 | 1011.0 |
| 20260503193709 | 55 | 245 | 3.0 | 13.0 | 0.00 | 0.00 | 0.00 | 53 | 1011.0 |
| 20260503193209 | 56 | 245 | 5.0 | 11.0 | 0.00 | 0.00 | 0.00 | 51 | 1011.0 |
| 20260503192710 | 55 | 245 | 8.0 | 12.0 | 0.00 | 0.00 | 0.00 | 52 | 1011.0 |
| 20260503192211 | 54 | 245 | 8.0 | 10.0 | 0.00 | 0.00 | 0.00 | 51 | 1011.0 |
| 20260503191710 | 55 | 245 | 4.0 | 6.0 | 0.00 | 0.00 | 0.00 | 51 | 1011.0 |
| 20260503191210 | 54 | 245 | 3.0 | 7.0 | 0.00 | 0.00 | 0.00 | 51 | 1011.0 |
| 20260503190709 | 54 | 245 | 12.0 | 12.0 | 0.00 | 0.00 | 0.00 | 50 | 1011.0 |
| 20260503190209 | 54 | 245 | 5.0 | 9.0 | 0.00 | 0.00 | 0.00 | 50 | 1011.0 |
| 20260503185709 | 54 | 245 | 8.0 | 12.0 | 0.00 | 0.00 | 0.00 | 49 | 1012.0 |
| 20260503185209 | 53 | 245 | 4.0 | 11.0 | 0.00 | 0.00 | 0.00 | 50 | 1012.0 |
| 20260503184709 | 53 | 245 | 5.0 | 8.0 | 0.00 | 0.00 | 0.00 | 50 | 1012.0 |
| 20260503184210 | 53 | 245 | 6.0 | 13.0 | 0.00 | 0.00 | 0.00 | 48 | 1012.0 |
| 20260503183709 | 55 | 245 | 3.0 | 11.0 | 0.00 | 0.00 | 0.00 | 46 | 1012.0 |
| 20260503183209 | 54 | 245 | 4.0 | 13.0 | 0.00 | 0.00 | 0.00 | 46 | 1012.0 |
| 20260503182709 | 54 | 245 | 4.0 | 15.0 | 0.00 | 0.00 | 0.00 | 45 | 1012.0 |
| 20260503182209 | 54 | 245 | 5.0 | 14.0 | 0.00 | 0.00 | 0.00 | 44 | 1012.0 |
| 20260503181709 | 54 | 245 | 6.0 | 9.0 | 0.00 | 0.00 | 0.00 | 43 | 1012.0 |
| 20260503181209 | 54 | 245 | 7.0 | 13.0 | 0.00 | 0.00 | 0.00 | 42 | 1012.0 |
| 20260503180709 | 54 | 245 | 4.0 | 4.0 | 0.00 | 0.00 | 0.00 | 42 | 1012.0 |
| 20260503180209 | 54 | 245 | 10.0 | 10.0 | 0.00 | 0.00 | 0.00 | 41 | 1012.0 |
| 20260503175709 | 55 | 245 | 6.0 | 10.0 | 0.00 | 0.00 | 0.00 | 42 | 1012.0 |
| 20260503175211 | 55 | 245 | 6.0 | 8.0 | 0.00 | 0.00 | 0.00 | 43 | 1012.0 |
| 20260503174709 | 54 | 245 | 4.0 | 5.0 | 0.00 | 0.00 | 0.00 | 46 | 1013.0 |
| 20260503174210 | 54 | 245 | 6.0 | 7.0 | 0.00 | 0.00 | 0.00 | 44 | 1013.0 |
| 20260503173709 | 54 | 245 | 10.0 | 10.0 | 0.00 | 0.00 | 0.00 | 48 | 1013.0 |
| 20260503173209 | 53 | 245 | 2.0 | 9.0 | 0.00 | 0.00 | 0.00 | 49 | 1013.0 |
| 20260503172709 | 52 | 245 | 3.0 | 7.0 | 0.00 | 0.00 | 0.00 | 53 | 1013.0 |
| 20260503172209 | 51 | 245 | 8.0 | 10.0 | 0.00 | 0.00 | 0.00 | 54 | 1013.0 |
| 20260503171709 | 51 | 245 | 4.0 | 11.0 | 0.00 | 0.00 | 0.00 | 58 | 1013.0 |
| 20260503171210 | 51 | 245 | 9.0 | 12.0 | 0.00 | 0.00 | 0.00 | 59 | 1013.0 |
| 20260503170710 | 51 | 245 | 4.0 | 4.0 | 0.00 | 0.00 | 0.00 | 61 | 1013.0 |
| 20260503170209 | 52 | 245 | 4.0 | 12.0 | 0.00 | 0.00 | 0.00 | 62 | 1013.0 |
| 20260503160209 | 51 | 245 | 4.0 | 11.0 | 0.00 | 0.00 | 0.00 | 58 | 1014.0 |
| 20260503150709 | 51 | 245 | 6.0 | 10.0 | 0.00 | 0.00 | 0.00 | 56 | 1014.0 |
| 20260503150209 | 51 | 245 | 3.0 | 8.0 | 0.00 | 0.00 | 0.00 | 54 | 1014.0 |
| 20260503140210 | 49 | 245 | 5.0 | 6.0 | 0.00 | 0.00 | 0.00 | 68 | 1014.0 |
| 20260503131209 | 46 | 245 | 6.0 | 13.0 | 0.00 | 0.00 | 0.00 | 73 | 1014.0 |
| 20260503130709 | 46 | 245 | 4.0 | 11.0 | 0.00 | 0.00 | 0.00 | 73 | 1014.0 |
| 20260503130210 | 46 | 245 | 5.0 | 6.0 | 0.00 | 0.00 | 0.00 | 75 | 1014.0 |
| 20260503120210 | 42 | 245 | 1.0 | 3.0 | 0.00 | 0.00 | 0.00 | 83 | 1014.0 |
| 20260503110709 | 36 | 245 | 0.0 | 0.0 | 0.00 | 0.00 | 0.00 | 86 | 1014.0 |
| 20260503110209 | 35 | 245 | 0.0 | 0.0 | 0.00 | 0.00 | 0.00 | 86 | 1014.0 |
| 20260503100209 | 33 | 245 | 0.0 | 0.0 | 0.00 | 0.00 | 0.00 | 85 | 1014.0 |
| 20260503090210 | 34 | 245 | 1.0 | 1.0 | 0.00 | 0.00 | 0.00 | 75 | 1015.0 |
| 20260503081209 | 35 | 245 | 0.0 | 0.0 | 0.00 | 0.00 | 0.00 | 76 | 1015.0 |
| 20260503080709 | 35 | 245 | 0.0 | 1.0 | 0.00 | 0.00 | 0.00 | 77 | 1015.0 |
| 20260503080209 | 35 | 245 | 0.0 | 0.0 | 0.00 | 0.00 | 0.00 | 78 | 1015.0 |
| 20260503072711 | 36 | 245 | 0.0 | 2.0 | 0.00 | 0.00 | 0.00 | 82 | 1015.0 |
| 20260503072210 | 36 | 245 | 1.0 | 2.0 | 0.00 | 0.00 | 0.00 | 83 | 1015.0 |
| 20260503071709 | 36 | 245 | 0.0 | 2.0 | 0.00 | 0.00 | 0.00 | 83 | 1015.0 |
| 20260503071210 | 36 | 245 | 0.0 | 2.0 | 0.00 | 0.00 | 0.00 | 84 | 1015.0 |
| 20260503070709 | 36 | 245 | 1.0 | 1.0 | 0.00 | 0.00 | 0.00 | 85 | 1015.0 |
| 20260503070209 | 36 | 245 | 0.0 | 0.0 | 0.00 | 0.00 | 0.00 | 85 | 1015.0 |